• Em Portugal
  • Lista de países
  • Para 7 dias
  • Temperatura da água
  • Mapas de satélite
  • Mapa do tempo
  • Widgets de tempo
  • user-avatar
    Iniciar Sessão

    Previsão horária em Chertovaya

    Hoje, 28 Maio, Segunda-feira

    Tempo Temperatura Precipitação Vento Pressão Humidade
    00:00 +12°C° 0 mm 2 m/s 749 mmHg 82%
    01:00 +12°C° 0 mm 2 m/s 749 mmHg 83%
    02:00 +10°C° 0 mm 2 m/s 749 mmHg 85%
    03:00 +12°C° 0 mm 2 m/s 749 mmHg 85%
    04:00 +12°C° 0 mm 2 m/s 750 mmHg 85%
    05:00 +13°C° 0 mm 2 m/s 750 mmHg 85%
    06:00 +15°C° 0 mm 2 m/s 750 mmHg 81%
    07:00 +17°C° 0 mm 2 m/s 750 mmHg 76%
    08:00 +19°C° 0 mm 2 m/s 750 mmHg 71%
    09:00 +20°C° 0 mm 3 m/s 750 mmHg 69%
    10:00 +21°C° 0 mm 3 m/s 751 mmHg 66%
    11:00 +22°C° 0 mm 4 m/s 751 mmHg 63%
    12:00 +22°C° 0,1 mm 4 m/s 751 mmHg 61%
    13:00 +22°C° 0,1 mm 5 m/s 751 mmHg 58%
    14:00 +22°C° 0,1 mm 5 m/s 751 mmHg 56%
    15:00 +21°C° 0 mm 5 m/s 751 mmHg 57%
    16:00 +21°C° 0 mm 4 m/s 751 mmHg 59%
    17:00 +20°C° 0 mm 4 m/s 751 mmHg 60%
    18:00 +18°C° 0 mm 4 m/s 751 mmHg 65%
    19:00 +16°C° 0 mm 3 m/s 752 mmHg 70%
    20:00 +12°C° 0 mm 3 m/s 752 mmHg 75%
    21:00 +11°C° 0 mm 3 m/s 752 mmHg 76%
    22:00 +10°C° 0 mm 3 m/s 753 mmHg 76%
    23:00 +9°C° 0 mm 3 m/s 753 mmHg 77%

    Amanhã, 29 Maio, Terça-feira

    Tempo Temperatura Precipitação Vento Pressão Humidade
    00:00 +9°C° 0 mm 3 m/s 753 mmHg 76%
    01:00 +8°C° 0 mm 2 m/s 754 mmHg 76%
    02:00 +8°C° 0 mm 2 m/s 754 mmHg 75%
    03:00 +8°C° 0 mm 2 m/s 754 mmHg 75%
    04:00 +8°C° 0 mm 2 m/s 754 mmHg 75%
    05:00 +8°C° 0 mm 2 m/s 754 mmHg 75%
    06:00 +10°C° 0 mm 2 m/s 754 mmHg 69%
    07:00 +14°C° 0 mm 2 m/s 754 mmHg 63%
    08:00 +16°C° 0 mm 2 m/s 754 mmHg 57%
    09:00 +17°C° 0 mm 2 m/s 754 mmHg 53%
    10:00 +19°C° 0 mm 1 m/s 753 mmHg 49%
    11:00 +21°C° 0 mm 1 m/s 753 mmHg 45%
    12:00 +21°C° 0 mm 1 m/s 752 mmHg 45%
    13:00 +22°C° 0 mm 1 m/s 752 mmHg 44%
    14:00 +22°C° 0 mm 1 m/s 752 mmHg 44%
    15:00 +21°C° 0 mm 2 m/s 751 mmHg 47%
    16:00 +21°C° 0 mm 2 m/s 750 mmHg 51%
    17:00 +21°C° 0 mm 2 m/s 750 mmHg 54%
    18:00 +19°C° 0 mm 2 m/s 749 mmHg 61%
    19:00 +17°C° 0 mm 2 m/s 749 mmHg 67%
    20:00 +14°C° 0 mm 2 m/s 749 mmHg 73%
    21:00 +14°C° 0 mm 2 m/s 749 mmHg 76%
    22:00 +13°C° 0 mm 2 m/s 748 mmHg 78%
    23:00 +12°C° 0 mm 2 m/s 748 mmHg 80%

    Depois de amanhã, 30 Maio, Quarta-feira

    Tempo Temperatura Precipitação Vento Pressão Humidade
    00:00 +12°C° 0 mm 2 m/s 748 mmHg 83%
    01:00 +10°C° 0 mm 3 m/s 748 mmHg 85%
    02:00 +10°C° 0 mm 3 m/s 748 mmHg 87%
    03:00 +10°C° 0 mm 3 m/s 747 mmHg 86%
    04:00 +11°C° 0 mm 3 m/s 747 mmHg 85%
    05:00 +11°C° 0 mm 3 m/s 747 mmHg 84%
    06:00 +13°C° 0 mm 3 m/s 746 mmHg 79%
    07:00 +15°C° 0 mm 4 m/s 746 mmHg 75%
    08:00 +18°C° 0 mm 4 m/s 746 mmHg 70%
    09:00 +20°C° 0 mm 4 m/s 745 mmHg 67%
    10:00 +22°C° 0 mm 4 m/s 745 mmHg 64%
    11:00 +23°C° 0 mm 5 m/s 744 mmHg 61%
    12:00 +25°C° 0,1 mm 5 m/s 744 mmHg 62%
    13:00 +25°C° 0,1 mm 5 m/s 743 mmHg 62%
    14:00 +26°C° 0,1 mm 5 m/s 743 mmHg 62%
    15:00 +25°C° 0,4 mm 5 m/s 742 mmHg 68%
    16:00 +23°C° 0,4 mm 5 m/s 742 mmHg 73%
    17:00 +23°C° 0,4 mm 4 m/s 741 mmHg 78%
    18:00 +21°C° 0 mm 4 m/s 741 mmHg 83%
    19:00 +20°C° 0 mm 4 m/s 741 mmHg 87%
    20:00 +19°C° 0 mm 3 m/s 741 mmHg 91%
    21:00 +18°C° 0 mm 3 m/s 740 mmHg 93%
    22:00 +18°C° 0 mm 3 m/s 740 mmHg 94%
    23:00 +17°C° 0 mm 3 m/s 740 mmHg 95%

    31 Maio, Quinta-feira

    Tempo Temperatura Precipitação Vento Pressão Humidade
    00:00 +16°C° 0 mm 3 m/s 739 mmHg 95%
    01:00 +16°C° 0 mm 3 m/s 739 mmHg 96%
    02:00 +16°C° 0 mm 3 m/s 739 mmHg 96%
    03:00 +16°C° 0,2 mm 3 m/s 738 mmHg 95%
    04:00 +16°C° 0,2 mm 3 m/s 738 mmHg 95%
    05:00 +15°C° 0,2 mm 4 m/s 738 mmHg 94%
    06:00 +17°C° 0,5 mm 4 m/s 738 mmHg 91%
    07:00 +19°C° 0,5 mm 3 m/s 738 mmHg 87%
    08:00 +20°C° 0,5 mm 3 m/s 738 mmHg 84%
    09:00 +20°C° 0,8 mm 4 m/s 738 mmHg 80%
    10:00 +20°C° 0,8 mm 4 m/s 738 mmHg 77%
    11:00 +21°C° 0,8 mm 4 m/s 738 mmHg 74%
    12:00 +20°C° 0,3 mm 4 m/s 738 mmHg 72%
    13:00 +20°C° 0,3 mm 5 m/s 738 mmHg 69%
    14:00 +20°C° 0,3 mm 5 m/s 738 mmHg 67%
    15:00 +20°C° 0,1 mm 5 m/s 738 mmHg 67%
    16:00 +19°C° 0,1 mm 4 m/s 738 mmHg 67%
    17:00 +19°C° 0,1 mm 4 m/s 738 mmHg 67%
    18:00 +18°C° 0 mm 4 m/s 739 mmHg 69%
    19:00 +15°C° 0 mm 4 m/s 739 mmHg 71%
    20:00 +14°C° 0 mm 4 m/s 739 mmHg 73%
    21:00 +13°C° 0 mm 4 m/s 740 mmHg 72%
    22:00 +13°C° 0 mm 4 m/s 740 mmHg 72%
    23:00 +12°C° 0 mm 5 m/s 740 mmHg 72%

    1 Junho, Sexta-feira

    Tempo Temperatura Precipitação Vento Pressão Humidade
    00:00 +12°C° 0 mm 5 m/s 740 mmHg 70%
    01:00 +10°C° 0 mm 5 m/s 741 mmHg 69%
    02:00 +9°C° 0 mm 5 m/s 741 mmHg 68%
    03:00 +9°C° 0 mm 5 m/s 741 mmHg 68%
    04:00 +9°C° 0 mm 5 m/s 741 mmHg 68%
    05:00 +8°C° 0 mm 5 m/s 741 mmHg 68%
    06:00 +9°C° 0 mm 5 m/s 742 mmHg 67%
    07:00 +10°C° 0 mm 6 m/s 742 mmHg 67%
    08:00 +11°C° 0 mm 6 m/s 742 mmHg 66%
    09:00 +11°C° 0 mm 6 m/s 743 mmHg 65%
    10:00 +13°C° 0 mm 6 m/s 743 mmHg 63%
    11:00 +13°C° 0 mm 6 m/s 743 mmHg 61%
    12:00 +13°C° 0 mm 6 m/s 743 mmHg 61%
    13:00 +13°C° 0 mm 6 m/s 743 mmHg 61%
    14:00 +13°C° 0 mm 6 m/s 743 mmHg 62%
    15:00 +13°C° 0,1 mm 5 m/s 743 mmHg 64%
    16:00 +12°C° 0,1 mm 5 m/s 743 mmHg 66%
    17:00 +12°C° 0,1 mm 5 m/s 743 mmHg 67%
    18:00 +12°C° 0 mm 5 m/s 743 mmHg 67%
    19:00 +10°C° 0 mm 5 m/s 744 mmHg 67%
    20:00 +10°C° 0 mm 5 m/s 744 mmHg 67%
    21:00 +9°C° 0 mm 5 m/s 744 mmHg 67%
    22:00 +9°C° 0 mm 5 m/s 744 mmHg 68%
    23:00 +9°C° 0 mm 5 m/s 744 mmHg 68%

    2 Junho, Sábado

    Tempo Temperatura Precipitação Vento Pressão Humidade
    00:00 +8°C° 0 mm 5 m/s 744 mmHg 68%
    01:00 +8°C° 0 mm 6 m/s 744 mmHg 68%
    02:00 +7°C° 0 mm 6 m/s 744 mmHg 68%
    03:00 +7°C° 0 mm 6 m/s 744 mmHg 69%
    04:00 +7°C° 0 mm 6 m/s 744 mmHg 70%
    05:00 +7°C° 0 mm 6 m/s 745 mmHg 71%
    06:00 +9°C° 0 mm 7 m/s 745 mmHg 69%
    07:00 +10°C° 0 mm 7 m/s 745 mmHg 67%
    08:00 +11°C° 0 mm 8 m/s 745 mmHg 65%
    09:00 +12°C° 0 mm 8 m/s 745 mmHg 64%
    10:00 +13°C° 0 mm 8 m/s 745 mmHg 62%
    11:00 +15°C° 0 mm 8 m/s 745 mmHg 61%
    12:00 +15°C° 0 mm 8 m/s 745 mmHg 62%
    13:00 +16°C° 0 mm 7 m/s 745 mmHg 63%
    14:00 +16°C° 0 mm 7 m/s 744 mmHg 64%
    15:00 +16°C° 0 mm 7 m/s 744 mmHg 66%
    16:00 +16°C° 0 mm 6 m/s 744 mmHg 68%
    17:00 +15°C° 0 mm 5 m/s 744 mmHg 71%
    18:00 +15°C° 0 mm 5 m/s 744 mmHg 72%
    19:00 +14°C° 0 mm 5 m/s 744 mmHg 72%
    20:00 +13°C° 0 mm 5 m/s 744 mmHg 73%
    21:00 +13°C° 0 mm 5 m/s 744 mmHg 73%
    22:00 +12°C° 0 mm 5 m/s 744 mmHg 74%
    23:00 +12°C° 0 mm 5 m/s 744 mmHg 74%
    Mostrar mais